WXM80 ListenWXM80 Stop

You find our weather info also at:

UK Metoffice

WeatherCloud

Weather Underground

Northeastern Weather Network

AWEKAS

Citizen Weather Observer Program (CWOP)

HAMweather, WeatherForYou, PWS Weather


Weather Underground History page Text

Daily Summary for May 1, 2017 Units:  English    Metric   Both
« Previous Day
Next Day »
Daily Weekly Monthly Yearly Custom
  High: Low: Average:
Temperature: 72.1 °F 48.4 °F 56.4 °F
Dew Point: 64.4 °F 44.9 °F 53.2 °F
Humidity: 98 % 74 % 90 %
Wind Speed: 9.6 mph 0.0 mph 3.1 mph
Wind Gust: 20.0 mph - -
Wind:- - ESE
Pressure: 30.14 in 29.63 in -
Precipitation: 0.01 in    
Historical Graphs
 
 
Tabular Data for May 1, 2017
Time Temperature Dew Point Pressure Wind Wind Speed Wind Gust Humidity Rainfall Rate (Hourly)
00:01 50.8 °F 44.9 °F 30.14 in ENE 1.0 mph 1.2 mph 80 % 0.00 in
00:06 50.9 °F 44.9 °F 30.14 in ENE 2.2 mph 3.5 mph 80 % 0.00 in
00:11 50.9 °F 45.3 °F 30.14 in ENE 2.0 mph 2.3 mph 81 % 0.00 in
00:17 50.8 °F 45.2 °F 30.14 in ENE 1.2 mph 3.5 mph 81 % 0.00 in
00:22 50.8 °F 45.2 °F 30.14 in East 1.4 mph 4.6 mph 81 % 0.00 in
00:27 50.8 °F 45.2 °F 30.13 in East 1.0 mph 2.3 mph 81 % 0.00 in
00:32 50.7 °F 45.4 °F 30.13 in East 2.9 mph 4.6 mph 82 % 0.00 in
00:37 50.8 °F 45.5 °F 30.13 in East 1.3 mph 3.0 mph 82 % 0.00 in
00:42 50.7 °F 45.7 °F 30.13 in ESE 2.3 mph 5.0 mph 83 % 0.00 in
00:47 50.7 °F 46.0 °F 30.13 in ESE 2.5 mph 3.5 mph 84 % 0.00 in
00:52 50.6 °F 45.9 °F 30.13 in East 1.7 mph 3.5 mph 84 % 0.00 in
00:57 50.5 °F 45.8 °F 30.13 in ESE 0.5 mph 2.3 mph 84 % 0.00 in
01:02 50.5 °F 46.2 °F 30.12 in ESE 2.2 mph 3.0 mph 85 % 0.00 in
01:07 50.5 °F 46.5 °F 30.12 in ESE 1.7 mph 3.5 mph 86 % 0.00 in
01:12 50.4 °F 46.4 °F 30.11 in ESE 2.6 mph 3.5 mph 86 % 0.00 in
01:18 50.3 °F 46.6 °F 30.11 in East 3.1 mph 5.0 mph 87 % 0.00 in
01:23 50.2 °F 46.5 °F 30.11 in ENE 1.5 mph 3.5 mph 87 % 0.00 in
01:28 50.1 °F 46.7 °F 30.10 in SE 1.0 mph 3.5 mph 88 % 0.00 in
01:33 50.0 °F 46.6 °F 30.10 in East 1.3 mph 4.6 mph 88 % 0.00 in
01:38 49.8 °F 46.7 °F 30.09 in East 2.2 mph 3.5 mph 89 % 0.00 in
01:43 49.7 °F 46.6 °F 30.10 in ENE 1.7 mph 3.0 mph 89 % 0.00 in
01:48 49.6 °F 46.8 °F 30.10 in East 2.0 mph 3.5 mph 90 % 0.00 in
01:53 49.5 °F 46.7 °F 30.09 in ENE 1.4 mph 3.0 mph 90 % 0.00 in
01:58 49.4 °F 46.9 °F 30.10 in ENE 1.9 mph 3.5 mph 91 % 0.00 in
02:03 49.3 °F 46.8 °F 30.09 in ENE 2.2 mph 3.5 mph 91 % 0.00 in
02:08 49.2 °F 47.0 °F 30.08 in ENE 1.9 mph 3.5 mph 92 % 0.00 in
02:09 49.2 °F 47.0 °F 30.08 in ENE 1.7 mph 3.5 mph 92 % 0.00 in
02:14 49.2 °F 47.0 °F 30.08 in ENE 1.4 mph 3.0 mph 92 % 0.00 in
02:19 49.0 °F 46.8 °F 30.08 in ENE 1.8 mph 3.5 mph 92 % 0.00 in
02:24 49.0 °F 47.1 °F 30.07 in ENE 2.2 mph 2.3 mph 93 % 0.00 in
02:29 48.9 °F 47.0 °F 30.07 in ENE 1.9 mph 3.5 mph 93 % 0.00 in
02:34 48.9 °F 47.2 °F 30.07 in East 1.9 mph 3.5 mph 94 % 0.00 in
02:39 48.9 °F 47.2 °F 30.07 in ENE 1.5 mph 3.5 mph 94 % 0.00 in
02:45 48.8 °F 47.2 °F 30.07 in ENE 2.0 mph 3.0 mph 94 % 0.00 in
02:50 48.8 °F 47.2 °F 30.07 in ENE 2.1 mph 3.5 mph 94 % 0.00 in
02:55 48.8 °F 47.2 °F 30.07 in ENE 2.1 mph 3.5 mph 94 % 0.00 in
03:00 48.8 °F 47.2 °F 30.07 in ENE 1.6 mph 3.5 mph 94 % 0.00 in
03:05 48.8 °F 47.2 °F 30.07 in NE 1.4 mph 3.5 mph 94 % 0.00 in
03:10 48.7 °F 47.3 °F 30.06 in ENE 1.8 mph 3.5 mph 95 % 0.00 in
03:15 48.7 °F 47.3 °F 30.05 in ENE 2.2 mph 3.5 mph 95 % 0.00 in
03:20 48.7 °F 47.3 °F 30.05 in ENE 1.8 mph 3.5 mph 95 % 0.00 in
03:25 48.7 °F 47.3 °F 30.04 in East 1.4 mph 3.5 mph 95 % 0.00 in
03:30 48.7 °F 47.3 °F 30.05 in ENE 2.4 mph 3.5 mph 95 % 0.00 in
03:35 48.6 °F 47.2 °F 30.04 in ENE 2.3 mph 3.5 mph 95 % 0.00 in
03:40 48.6 °F 47.2 °F 30.04 in ENE 1.3 mph 3.5 mph 95 % 0.00 in
03:45 48.6 °F 47.2 °F 30.04 in ENE 1.0 mph 5.0 mph 95 % 0.00 in
03:51 48.5 °F 47.1 °F 30.04 in ENE 1.0 mph 3.0 mph 95 % 0.00 in
03:55 48.5 °F 47.1 °F 30.04 in ENE 0.9 mph 2.3 mph 95 % 0.00 in
04:00 48.5 °F 47.1 °F 30.04 in ENE 2.4 mph 6.9 mph 95 % 0.00 in
04:05 48.5 °F 47.1 °F 30.03 in ENE 3.0 mph 7.0 mph 95 % 0.00 in
04:10 48.4 °F 47.3 °F 30.03 in ENE 3.3 mph 5.0 mph 96 % 0.00 in
04:15 48.4 °F 47.3 °F 30.03 in ENE 2.0 mph 5.0 mph 96 % 0.00 in
04:21 48.4 °F 47.3 °F 30.02 in ENE 2.0 mph 6.0 mph 96 % 0.00 in
04:26 48.4 °F 47.3 °F 30.02 in ENE 3.0 mph 5.0 mph 96 % 0.00 in
04:31 48.4 °F 47.3 °F 30.02 in ENE 3.0 mph 7.0 mph 96 % 0.00 in
04:36 48.4 °F 47.3 °F 30.02 in ENE 2.0 mph 7.0 mph 96 % 0.00 in
04:41 48.4 °F 47.3 °F 30.02 in ENE 2.0 mph 4.0 mph 96 % 0.00 in
04:45 48.5 °F 47.4 °F 30.01 in ENE 1.0 mph 3.0 mph 96 % 0.00 in
04:50 48.6 °F 47.5 °F 30.01 in East 1.0 mph 3.0 mph 96 % 0.00 in
04:55 48.6 °F 47.5 °F 30.01 in East 1.0 mph 2.0 mph 96 % 0.00 in
05:01 48.7 °F 47.6 °F 30.01 in East 1.6 mph 2.3 mph 96 % 0.00 in
05:06 48.8 °F 47.7 °F 30.00 in East 1.2 mph 2.3 mph 96 % 0.00 in
05:11 48.7 °F 47.6 °F 29.99 in East 1.2 mph 2.3 mph 96 % 0.00 in
05:16 48.7 °F 47.6 °F 29.99 in East 1.6 mph 3.5 mph 96 % 0.00 in
05:17 48.7 °F 47.6 °F 29.99 in East 0.5 mph 2.3 mph 96 % 0.00 in
05:22 48.7 °F 47.6 °F 30.00 in ENE 1.2 mph 3.0 mph 96 % 0.00 in
05:27 48.7 °F 47.6 °F 30.00 in ENE 0.4 mph 2.3 mph 96 % 0.00 in
05:32 48.7 °F 47.6 °F 30.00 in ENE 0.3 mph 1.2 mph 96 % 0.00 in
05:38 48.7 °F 47.6 °F 29.99 in ENE 0.9 mph 1.2 mph 96 % 0.00 in
05:43 48.7 °F 47.6 °F 29.99 in ENE 0.4 mph 2.0 mph 96 % 0.00 in
05:48 48.8 °F 48.0 °F 29.98 in ENE 0.1 mph 1.2 mph 97 % 0.00 in
05:53 48.8 °F 48.0 °F 29.98 in ENE 0.1 mph 1.2 mph 97 % 0.00 in
05:58 48.8 °F 48.0 °F 29.98 in Calm     97 % 0.00 in
06:03 48.8 °F 48.0 °F 29.98 in ENE 0.1 mph 1.0 mph 97 % 0.00 in
06:08 48.8 °F 48.0 °F 29.98 in ENE 1.4 mph 2.3 mph 97 % 0.00 in
06:13 48.8 °F 48.0 °F 29.98 in ENE 0.6 mph 2.0 mph 97 % 0.00 in
06:18 48.8 °F 48.0 °F 29.98 in ENE 1.2 mph 3.5 mph 97 % 0.00 in
06:23 48.9 °F 48.1 °F 29.98 in NE 1.5 mph 2.3 mph 97 % 0.00 in
06:28 48.9 °F 48.1 °F 29.98 in ENE 0.9 mph 2.3 mph 97 % 0.00 in
06:34 48.9 °F 48.1 °F 29.98 in ENE 0.3 mph 1.2 mph 97 % 0.00 in
06:39 49.0 °F 48.2 °F 29.98 in ENE 1.9 mph 4.0 mph 97 % 0.00 in
06:44 49.0 °F 48.2 °F 29.98 in ENE 2.7 mph 5.8 mph 97 % 0.00 in
06:49 49.0 °F 48.2 °F 29.98 in NE 2.3 mph 4.6 mph 97 % 0.00 in
06:54 49.1 °F 48.3 °F 29.98 in ENE 2.6 mph 4.6 mph 97 % 0.01 in
06:59 49.1 °F 48.3 °F 29.99 in ENE 1.4 mph 3.5 mph 97 % 0.01 in
07:04 49.1 °F 48.3 °F 29.98 in ENE 0.8 mph 3.5 mph 97 % 0.01 in
07:09 49.1 °F 48.3 °F 29.98 in NE 2.7 mph 4.6 mph 97 % 0.01 in
07:14 49.1 °F 48.3 °F 29.98 in ENE 1.0 mph 3.5 mph 97 % 0.01 in
07:19 49.2 °F 48.4 °F 29.98 in East 3.7 mph 5.0 mph 97 % 0.01 in
07:24 49.2 °F 48.4 °F 29.99 in ENE 0.6 mph 3.5 mph 97 % 0.01 in
07:30 49.2 °F 48.4 °F 29.99 in ENE 1.5 mph 5.8 mph 97 % 0.01 in
07:35 49.1 °F 48.3 °F 29.98 in ENE 2.6 mph 7.0 mph 97 % 0.01 in
07:36 49.1 °F 48.3 °F 29.98 in East 3.7 mph 6.9 mph 97 % 0.01 in
07:41 49.0 °F 48.2 °F 29.98 in NE 4.0 mph 8.1 mph 97 % 0.01 in
07:46 48.8 °F 48.0 °F 29.98 in ENE 3.9 mph 6.9 mph 97 % 0.01 in
07:51 48.6 °F 47.8 °F 29.98 in East 4.3 mph 7.0 mph 97 % 0.00 in
07:52 48.6 °F 47.8 °F 29.98 in ENE 4.6 mph 7.0 mph 97 % 0.00 in
07:57 48.5 °F 47.7 °F 29.98 in ENE 3.6 mph 5.0 mph 97 % 0.00 in
08:02 48.5 °F 47.7 °F 29.98 in ENE 2.7 mph 4.6 mph 97 % 0.00 in
08:07 48.5 °F 47.7 °F 29.99 in ENE 3.5 mph 9.2 mph 97 % 0.00 in
08:12 48.4 °F 47.6 °F 29.98 in ENE 4.9 mph 8.0 mph 97 % 0.00 in
08:18 48.4 °F 47.6 °F 29.99 in NE 5.9 mph 10.4 mph 97 % 0.00 in
08:23 48.4 °F 47.6 °F 29.99 in NE 4.1 mph 6.9 mph 97 % 0.00 in
08:28 48.5 °F 47.7 °F 29.99 in ENE 3.7 mph 6.9 mph 97 % 0.00 in
08:33 48.5 °F 47.7 °F 29.99 in ENE 2.4 mph 4.0 mph 97 % 0.00 in
08:38 48.6 °F 47.8 °F 29.99 in ENE 4.2 mph 6.9 mph 97 % 0.00 in
08:43 48.6 °F 47.8 °F 29.98 in ENE 2.9 mph 5.8 mph 97 % 0.00 in
08:48 48.8 °F 48.0 °F 29.99 in ENE 2.1 mph 7.0 mph 97 % 0.00 in
08:53 49.0 °F 48.2 °F 29.99 in ENE 1.8 mph 3.5 mph 97 % 0.00 in
08:58 49.1 °F 48.3 °F 29.98 in ENE 2.1 mph 3.5 mph 97 % 0.00 in
09:03 49.3 °F 48.5 °F 29.98 in East 1.8 mph 3.0 mph 97 % 0.00 in
09:08 49.5 °F 48.7 °F 29.98 in ENE 2.0 mph 4.6 mph 97 % 0.00 in
09:13 49.5 °F 48.7 °F 29.98 in ENE 2.0 mph 3.5 mph 97 % 0.00 in
09:18 49.6 °F 48.8 °F 29.98 in ENE 1.8 mph 4.6 mph 97 % 0.00 in
09:24 49.6 °F 48.8 °F 29.98 in ENE 1.3 mph 4.6 mph 97 % 0.00 in
09:29 49.7 °F 48.9 °F 29.98 in ENE 1.5 mph 5.8 mph 97 % 0.00 in
09:34 49.8 °F 49.0 °F 29.97 in East 1.0 mph 2.3 mph 97 % 0.00 in
09:39 49.8 °F 49.0 °F 29.97 in NE 1.4 mph 3.5 mph 97 % 0.00 in
09:44 50.0 °F 49.2 °F 29.97 in ENE 1.7 mph 3.5 mph 97 % 0.00 in
09:49 50.4 °F 49.9 °F 29.96 in ENE 1.4 mph 3.5 mph 98 % 0.00 in
09:54 50.5 °F 50.0 °F 29.97 in ENE 1.2 mph 4.6 mph 98 % 0.00 in
09:59 50.6 °F 49.8 °F 29.97 in NE 2.2 mph 3.5 mph 97 % 0.00 in
10:04 50.6 °F 49.8 °F 29.97 in ENE 1.9 mph 4.6 mph 97 % 0.00 in
10:09 50.6 °F 49.8 °F 29.97 in ENE 2.9 mph 3.5 mph 97 % 0.00 in
10:14 50.6 °F 49.8 °F 29.96 in ENE 1.4 mph 3.5 mph 97 % 0.00 in
10:19 50.6 °F 49.8 °F 29.96 in ENE 1.1 mph 3.5 mph 97 % 0.00 in
10:25 50.6 °F 49.8 °F 29.96 in ENE 3.2 mph 3.5 mph 97 % 0.00 in
10:30 50.7 °F 49.9 °F 29.96 in ENE 1.4 mph 3.5 mph 97 % 0.00 in
10:35 50.6 °F 49.8 °F 29.96 in ENE 0.8 mph 2.3 mph 97 % 0.00 in
10:40 50.7 °F 49.9 °F 29.96 in ENE 2.0 mph 3.5 mph 97 % 0.00 in
10:45 50.9 °F 50.1 °F 29.95 in ENE 2.6 mph 3.5 mph 97 % 0.00 in
10:50 51.0 °F 50.2 °F 29.96 in ENE 1.3 mph 3.5 mph 97 % 0.00 in
10:55 51.0 °F 50.2 °F 29.96 in NE 1.6 mph 3.5 mph 97 % 0.00 in
11:00 51.1 °F 50.3 °F 29.96 in ENE 0.8 mph 2.0 mph 97 % 0.00 in
11:05 51.3 °F 50.5 °F 29.95 in ENE 1.7 mph 3.5 mph 97 % 0.00 in
11:10 51.6 °F 50.8 °F 29.95 in ENE 0.9 mph 3.5 mph 97 % 0.00 in
11:15 51.9 °F 51.1 °F 29.95 in ENE 0.8 mph 2.3 mph 97 % 0.00 in
11:21 52.1 °F 51.3 °F 29.95 in ENE 2.2 mph 3.5 mph 97 % 0.00 in
11:26 52.2 °F 51.1 °F 29.95 in NE 2.0 mph 6.0 mph 96 % 0.00 in
11:31 52.4 °F 51.3 °F 29.95 in ENE 2.0 mph 5.0 mph 96 % 0.00 in
11:36 53.0 °F 51.9 °F 29.95 in ENE 1.9 mph 3.5 mph 96 % 0.00 in
11:41 53.3 °F 52.2 °F 29.95 in Calm   5.0 mph 96 % 0.00 in
11:46 53.9 °F 52.5 °F 29.95 in NE 1.5 mph 4.0 mph 95 % 0.00 in
11:50 54.1 °F 52.4 °F 29.94 in ENE 2.3 mph 3.5 mph 94 % 0.00 in
11:56 54.5 °F 52.8 °F 29.94 in NE 2.0 mph 5.0 mph 94 % 0.00 in
12:01 55.1 °F 53.1 °F 29.94 in ENE 2.9 mph 4.6 mph 93 % 0.00 in
12:06 55.1 °F 52.5 °F 29.93 in ENE 2.0 mph 7.0 mph 91 % 0.00 in
12:11 55.3 °F 52.4 °F 29.93 in ENE 3.0 mph 7.0 mph 90 % 0.00 in
12:16 55.3 °F 52.4 °F 29.93 in ENE 2.0 mph 8.0 mph 90 % 0.00 in
12:21 55.5 °F 52.6 °F 29.93 in NE 1.2 mph 3.5 mph 90 % 0.00 in
12:26 56.0 °F 53.4 °F 29.93 in NE 2.0 mph 5.0 mph 91 % 0.00 in
12:31 56.4 °F 53.2 °F 29.93 in NE 3.0 mph 7.0 mph 89 % 0.00 in
12:36 56.4 °F 52.6 °F 29.93 in NE 5.1 mph 7.0 mph 87 % 0.00 in
12:41 56.3 °F 52.5 °F 29.92 in ENE 5.0 mph 9.0 mph 87 % 0.00 in
12:46 55.9 °F 52.1 °F 29.92 in ENE 3.0 mph 9.0 mph 87 % 0.00 in
12:51 55.5 °F 51.3 °F 29.92 in ENE 5.0 mph 8.0 mph 86 % 0.00 in
12:56 55.4 °F 51.9 °F 29.92 in ENE 3.0 mph 8.0 mph 88 % 0.00 in
13:01 56.1 °F 52.6 °F 29.91 in NE 3.0 mph 5.8 mph 88 % 0.00 in
13:06 56.5 °F 53.0 °F 29.91 in ENE 2.3 mph 4.6 mph 88 % 0.00 in
13:08 56.6 °F 52.8 °F 29.91 in East 3.0 mph 7.0 mph 87 % 0.00 in
13:13 56.5 °F 52.4 °F 29.91 in ENE 4.6 mph 6.9 mph 86 % 0.00 in
13:18 57.0 °F 53.2 °F 29.91 in ENE 4.5 mph 7.0 mph 87 % 0.00 in
13:23 57.6 °F 53.4 °F 29.90 in ENE 3.3 mph 6.9 mph 86 % 0.00 in
13:28 57.6 °F 52.8 °F 29.90 in ENE 5.7 mph 8.1 mph 84 % 0.00 in
13:33 57.6 °F 53.1 °F 29.90 in ENE 4.7 mph 8.1 mph 85 % 0.00 in
13:38 57.1 °F 52.3 °F 29.90 in ENE 5.5 mph 6.9 mph 84 % 0.00 in
13:43 57.1 °F 53.0 °F 29.90 in East 2.3 mph 3.5 mph 86 % 0.00 in
13:48 57.2 °F 52.7 °F 29.89 in ENE 3.5 mph 5.0 mph 85 % 0.00 in
13:53 57.6 °F 53.4 °F 29.89 in ENE 4.9 mph 9.2 mph 86 % 0.00 in
13:58 57.6 °F 53.1 °F 29.89 in ENE 3.4 mph 5.0 mph 85 % 0.00 in
14:03 57.7 °F 53.2 °F 29.88 in ENE 3.7 mph 7.0 mph 85 % 0.00 in
14:09 57.8 °F 53.3 °F 29.88 in ENE 4.2 mph 8.1 mph 85 % 0.00 in
14:14 57.9 °F 52.8 °F 29.88 in ENE 8.1 mph 11.0 mph 83 % 0.00 in
14:19 57.4 °F 52.6 °F 29.87 in ENE 3.3 mph 9.2 mph 84 % 0.00 in
14:24 57.7 °F 53.2 °F 29.87 in ENE 5.6 mph 9.2 mph 85 % 0.00 in
14:29 57.2 °F 52.4 °F 29.86 in ENE 6.3 mph 9.2 mph 84 % 0.00 in
14:34 57.1 °F 52.6 °F 29.87 in ENE 4.7 mph 7.0 mph 85 % 0.00 in
14:39 57.1 °F 53.3 °F 29.86 in ENE 4.6 mph 8.1 mph 87 % 0.00 in
14:44 57.7 °F 53.9 °F 29.86 in ENE 2.7 mph 3.5 mph 87 % 0.00 in
14:49 57.6 °F 53.1 °F 29.85 in NE 6.5 mph 9.0 mph 85 % 0.00 in
14:54 57.7 °F 53.5 °F 29.85 in ENE 5.0 mph 8.0 mph 86 % 0.00 in
15:00 57.6 °F 53.4 °F 29.85 in East 4.2 mph 8.1 mph 86 % 0.00 in
15:05 57.3 °F 52.8 °F 29.85 in ENE 6.7 mph 8.1 mph 85 % 0.00 in
15:10 57.2 °F 53.4 °F 29.85 in ENE 2.2 mph 8.1 mph 87 % 0.00 in
15:15 57.6 °F 53.8 °F 29.84 in NE 4.6 mph 8.1 mph 87 % 0.00 in
15:20 57.9 °F 54.1 °F 29.83 in NE 6.1 mph 8.1 mph 87 % 0.00 in
15:25 57.9 °F 54.1 °F 29.83 in NE 4.1 mph 6.9 mph 87 % 0.00 in
15:30 58.0 °F 53.8 °F 29.83 in East 3.8 mph 5.8 mph 86 % 0.00 in
15:35 58.4 °F 54.5 °F 29.83 in East 2.3 mph 7.0 mph 87 % 0.00 in
15:40 58.7 °F 54.8 °F 29.82 in ENE 3.4 mph 5.8 mph 87 % 0.00 in
15:45 58.9 °F 54.7 °F 29.82 in NNE 3.8 mph 5.8 mph 86 % 0.00 in
15:50 59.3 °F 54.8 °F 29.82 in East 2.1 mph 6.9 mph 85 % 0.00 in
15:55 59.3 °F 54.8 °F 29.82 in North 2.8 mph 5.8 mph 85 % 0.00 in
16:01 59.2 °F 54.7 °F 29.81 in ENE 4.5 mph 5.0 mph 85 % 0.00 in
16:06 59.5 °F 55.3 °F 29.81 in ENE 1.4 mph 4.0 mph 86 % 0.00 in
16:11 60.0 °F 55.5 °F 29.81 in North 2.1 mph 4.6 mph 85 % 0.00 in
16:16 60.5 °F 56.3 °F 29.80 in North 1.1 mph 4.0 mph 86 % 0.00 in
16:21 61.2 °F 56.7 °F 29.80 in NNE 2.7 mph 4.6 mph 85 % 0.00 in
16:26 61.7 °F 56.5 °F 29.80 in NNW 3.0 mph 4.0 mph 83 % 0.00 in
16:31 62.2 °F 57.0 °F 29.79 in NNE 1.4 mph 3.5 mph 83 % 0.00 in
16:36 62.6 °F 57.0 °F 29.79 in North 0.8 mph 3.5 mph 82 % 0.00 in
16:41 62.9 °F 57.3 °F 29.79 in East 0.7 mph 3.5 mph 82 % 0.00 in
16:47 63.2 °F 57.6 °F 29.78 in NNE 4.1 mph 4.1 mph 82 % 0.00 in
16:52 63.8 °F 59.5 °F 29.78 in SSW 1.4 mph 4.6 mph 86 % 0.00 in
16:57 65.0 °F 61.7 °F 29.78 in WSW 0.4 mph 4.6 mph 89 % 0.00 in
17:02 66.3 °F 63.3 °F 29.77 in SSW 4.2 mph 8.1 mph 90 % 0.00 in
17:07 67.8 °F 63.8 °F 29.77 in South 0.5 mph 2.3 mph 87 % 0.00 in
17:17 69.7 °F 64.0 °F 29.76 in SSW 3.2 mph 6.0 mph 82 % 0.00 in
17:22 70.4 °F 64.3 °F 29.76 in SE 0.8 mph 4.6 mph 81 % 0.00 in
17:27 70.9 °F 64.4 °F 29.75 in SW 3.4 mph 9.2 mph 80 % 0.00 in
17:32 71.3 °F 64.4 °F 29.75 in SSW 5.5 mph 9.0 mph 79 % 0.00 in
17:37 71.7 °F 64.1 °F 29.75 in South 2.3 mph 8.1 mph 77 % 0.00 in
17:42 72.0 °F 64.0 °F 29.75 in South 5.6 mph 11.5 mph 76 % 0.00 in
17:47 72.1 °F 63.7 °F 29.75 in South 6.5 mph 11.5 mph 75 % 0.00 in
17:53 72.1 °F 63.4 °F 29.74 in SSW 3.8 mph 13.8 mph 74 % 0.00 in
17:58 72.0 °F 63.3 °F 29.74 in South 4.6 mph 11.0 mph 74 % 0.00 in
18:03 71.8 °F 63.1 °F 29.74 in SW 3.6 mph 6.9 mph 74 % 0.00 in
18:08 71.7 °F 63.4 °F 29.74 in SW 4.9 mph 9.2 mph 75 % 0.00 in
18:13 71.5 °F 63.2 °F 29.74 in South 3.3 mph 6.9 mph 75 % 0.00 in
18:18 71.3 °F 63.0 °F 29.73 in SW 4.3 mph 8.1 mph 75 % 0.00 in
18:23 71.2 °F 62.9 °F 29.73 in South 4.7 mph 12.7 mph 75 % 0.00 in
18:28 70.9 °F 62.6 °F 29.72 in South 4.8 mph 9.2 mph 75 % 0.00 in
18:33 70.6 °F 62.7 °F 29.72 in SE 4.6 mph 8.1 mph 76 % 0.00 in
18:38 70.3 °F 62.7 °F 29.72 in SSW 3.8 mph 6.9 mph 77 % 0.00 in
18:43 70.0 °F 62.5 °F 29.71 in SSE 3.9 mph 8.1 mph 77 % 0.00 in
18:49 69.7 °F 62.2 °F 29.71 in South 3.1 mph 11.5 mph 77 % 0.00 in
18:54 69.4 °F 61.9 °F 29.71 in SSW 1.7 mph 5.8 mph 77 % 0.00 in
18:59 69.2 °F 62.0 °F 29.71 in South 3.7 mph 6.9 mph 78 % 0.00 in
19:04 68.9 °F 61.8 °F 29.70 in SW 5.6 mph 8.1 mph 78 % 0.00 in
19:09 68.7 °F 61.9 °F 29.70 in South 3.4 mph 5.8 mph 79 % 0.00 in
19:14 68.5 °F 61.7 °F 29.70 in South 1.8 mph 7.0 mph 79 % 0.00 in
19:19 68.3 °F 61.5 °F 29.70 in South 2.9 mph 4.6 mph 79 % 0.00 in
19:24 68.0 °F 61.6 °F 29.69 in South 4.7 mph 11.5 mph 80 % 0.00 in
19:29 67.8 °F 61.4 °F 29.70 in South 3.9 mph 6.9 mph 80 % 0.00 in
19:34 67.8 °F 61.4 °F 29.70 in South 5.5 mph 15.0 mph 80 % 0.00 in
19:39 67.6 °F 61.2 °F 29.70 in SSW 2.4 mph 8.1 mph 80 % 0.00 in
19:44 67.5 °F 61.1 °F 29.69 in SSW 5.2 mph 11.5 mph 80 % 0.00 in
19:49 67.4 °F 61.0 °F 29.69 in SSW 3.0 mph 5.0 mph 80 % 0.00 in
19:54 67.4 °F 61.0 °F 29.69 in South 5.9 mph 10.4 mph 80 % 0.00 in
20:00 67.3 °F 61.3 °F 29.69 in SSW 5.6 mph 14.0 mph 81 % 0.00 in
20:05 67.3 °F 61.3 °F 29.70 in South 4.8 mph 8.1 mph 81 % 0.00 in
20:10 67.3 °F 61.3 °F 29.70 in SSW 5.6 mph 15.0 mph 81 % 0.00 in
20:15 67.2 °F 61.2 °F 29.70 in SW 4.6 mph 11.5 mph 81 % 0.00 in
20:20 67.2 °F 61.5 °F 29.70 in South 3.8 mph 9.2 mph 82 % 0.00 in
20:25 67.1 °F 61.4 °F 29.70 in South 7.5 mph 12.7 mph 82 % 0.00 in
20:30 67.0 °F 61.3 °F 29.70 in South 6.2 mph 10.0 mph 82 % 0.00 in
20:35 67.0 °F 61.3 °F 29.71 in South 7.1 mph 10.4 mph 82 % 0.00 in
20:40 66.8 °F 61.1 °F 29.71 in South 2.8 mph 5.8 mph 82 % 0.00 in
20:45 66.7 °F 61.0 °F 29.71 in South 5.2 mph 6.9 mph 82 % 0.00 in
20:50 66.5 °F 61.2 °F 29.70 in SSW 5.5 mph 9.2 mph 83 % 0.00 in
20:55 66.2 °F 60.9 °F 29.70 in South 4.7 mph 10.4 mph 83 % 0.00 in
21:00 66.0 °F 61.0 °F 29.70 in South 4.6 mph 10.4 mph 84 % 0.00 in
21:05 65.7 °F 60.7 °F 29.70 in South 5.8 mph 11.0 mph 84 % 0.00 in
21:11 65.6 °F 61.0 °F 29.70 in SSW 4.6 mph 12.7 mph 85 % 0.00 in
21:16 65.4 °F 61.1 °F 29.70 in SSW 6.0 mph 13.0 mph 86 % 0.00 in
21:21 65.2 °F 60.9 °F 29.69 in SSW 3.0 mph 12.0 mph 86 % 0.00 in
21:26 65.0 °F 61.0 °F 29.69 in SSW 6.0 mph 12.0 mph 87 % 0.00 in
21:31 64.8 °F 60.9 °F 29.68 in South 6.0 mph 12.0 mph 87 % 0.00 in
21:36 64.8 °F 60.8 °F 29.68 in SE 4.4 mph 6.9 mph 87 % 0.00 in
21:41 64.7 °F 61.1 °F 29.68 in SSW 6.0 mph 17.0 mph 88 % 0.00 in
21:46 64.7 °F 61.1 °F 29.69 in SSW 6.0 mph 17.0 mph 88 % 0.00 in
21:51 64.7 °F 61.4 °F 29.69 in SSW 6.0 mph 15.0 mph 89 % 0.00 in
21:56 64.7 °F 61.4 °F 29.69 in South 5.2 mph 11.5 mph 89 % 0.00 in
22:01 64.7 °F 61.4 °F 29.68 in SW 4.3 mph 9.2 mph 89 % 0.00 in
22:06 64.8 °F 61.5 °F 29.68 in South 5.2 mph 13.8 mph 89 % 0.00 in
22:11 64.8 °F 61.5 °F 29.68 in SSW 5.0 mph 10.4 mph 89 % 0.00 in
22:16 64.8 °F 61.5 °F 29.68 in SSE 5.3 mph 11.5 mph 89 % 0.00 in
22:21 64.8 °F 61.5 °F 29.67 in SSE 7.3 mph 11.5 mph 89 % 0.00 in
22:26 64.7 °F 61.4 °F 29.67 in South 3.3 mph 9.2 mph 89 % 0.00 in
22:31 64.7 °F 61.7 °F 29.65 in South 6.9 mph 11.5 mph 90 % 0.00 in
22:36 64.6 °F 61.6 °F 29.65 in ENE 6.9 mph 15.0 mph 90 % 0.00 in
22:41 64.5 °F 61.5 °F 29.65 in SW 6.5 mph 13.0 mph 90 % 0.00 in
22:46 64.5 °F 61.2 °F 29.65 in South 9.4 mph 18.4 mph 89 % 0.00 in
22:51 64.5 °F 61.2 °F 29.65 in SSW 5.8 mph 16.1 mph 89 % 0.00 in
22:56 64.5 °F 61.5 °F 29.65 in South 5.0 mph 6.9 mph 90 % 0.00 in
23:02 64.5 °F 61.5 °F 29.65 in SW 7.1 mph 13.8 mph 90 % 0.00 in
23:07 64.5 °F 61.5 °F 29.65 in South 3.5 mph 5.0 mph 90 % 0.00 in
23:12 64.6 °F 61.6 °F 29.65 in SSW 5.5 mph 11.5 mph 90 % 0.00 in
23:17 64.5 °F 61.5 °F 29.64 in SW 5.5 mph 11.5 mph 90 % 0.00 in
23:22 64.5 °F 61.5 °F 29.65 in SSW 8.7 mph 20.0 mph 90 % 0.00 in
23:27 64.5 °F 61.5 °F 29.65 in South 7.4 mph 12.7 mph 90 % 0.00 in
23:32 64.5 °F 61.5 °F 29.64 in SSW 9.6 mph 13.8 mph 90 % 0.00 in
23:37 64.4 °F 61.4 °F 29.64 in South 6.5 mph 10.4 mph 90 % 0.00 in
23:42 64.3 °F 61.6 °F 29.64 in SSW 9.4 mph 15.0 mph 91 % 0.00 in
23:48 64.3 °F 61.6 °F 29.64 in South 7.5 mph 12.7 mph 91 % 0.00 in
23:53 64.2 °F 61.2 °F 29.63 in SSW 5.6 mph 16.1 mph 90 % 0.00 in
23:58 64.1 °F 61.1 °F 29.63 in SSW 7.7 mph 12.7 mph 90 % 0.00 in
Crab Meadow Weather
Compliments of Weather Underground - 3 mb

Script developed by  Jim McMurry - jmcmurry@mwt.net Adapted for the template by  Wim van der Kuil - Leuven-Template.eu

Recycling: Americans threw away 38 billion plastic water bottles in 2006. A million and a half barrels of oil - enough to fuel 100,000 cars for a year - were used to produce the bottles.